Temp
-2 -2 -1 -0 -0 -0 -0 -0 -1 -0 -1 -1 -1 -2 -2 -2 -3 -3 -4 -4 -4 -5 -5 -7 -8 -7 -7 -6 -7 -6 -7 -7 -7 -7 -7 -5 -5 -4 -4 -4 -5 -5 -5 -6 -6
-2 -2 -1 -1 -1 -0 -0 -0 -0 -0 -0 -1 -1 -1 -2 -2 -2 -3 -3 -4 -4 -5 -4 -6 -7 -7 -7 -8 -7 -7 -7 -7 -7 -7 -7 -6 -5 -5 -5 -5 -5 -5 -5 -6 -6
-3 -2 -2 -1 -0 -0 -0 -0 -0 -0 -0 -0 -1 -1 -1 -2 -2 -2 -3 -3 -4 -4 -4 -5 -6 -6 -7 -7 -8 -8 -7 -8 -7 -7 -7 -5 -4 -5 -6 -5 -4 -5 -6 -6 -7
-4 -3 -2 -2 -1 -1 -0 -0 -0 -0 -0 -0 -1 -1 -1 -2 -2 -2 -2 -3 -4 -3 -4 -5 -6 -6 -7 -7 -8 -7 -7 -7 -7 -6 -5 -5 -6 -5 -5 -5 -5 -5 -6 -6 -6
-4 -4 -3 -2 -2 -1 -1 -0 -0 -0 -0 -0 -0 -1 -1 -1 -2 -2 -2 -2 -3 -3 -4 -5 -6 -5 -7 -7 -7 -8 -7 -7 -7 -6 -5 -6 -5 -5 -5 -5 -5 -5 -6 -6 -7
-4 -4 -4 -3 -2 -2 -1 -1 -0 -0 -0 -0 -0 -0 -1 -1 -2 -2 -2 -2 -3 -3 -4 -4 -6 -4 -7 -7 -7 -7 -7 -7 -7 -6 -6 -5 -5 -5 -5 -5 -5 -5 -6 -6 -6
-5 -5 -4 -4 -4 -2 -2 -1 -1 -0 -0 -0 -0 -0 -1 -1 -1 -2 -2 -2 -3 -3 -4 -5 -5 -4 -7 -7 -7 -8 -7 -7 -6 -6 -5 -5 -5 -5 -5 -5 -5 -6 -6 -6 -6
-5 -5 -5 -5 -4 -4 -3 -3 -2 -1 -0 -0 -0 -0 -0 -1 -1 -2 -2 -2 -2 -2 -4 -4 -5 -3 -6 -7 -7 -7 -7 -7 -5 -6 -6 -5 -5 -5 -5 -5 -5 -6 -6 -6 -6
-6 -5 -5 -5 -5 -4 -4 -3 -3 -2 -1 -0 -0 -0 -1 -1 -2 -2 -2 -3 -3 -3 -3 -3 -4 -4 -5 -7 -7 -7 -6 -7 -6 -6 -6 -6 -5 -5 -6 -5 -5 -5 -5 -6 -6
-6 -6 -6 -6 -6 -5 -4 -4 -3 -3 -2 -0 -1 -1 -1 -1 -2 -2 -2 -2 -2 -3 -3 -3 -3 -4 -4 -5 -6 -6 -7 -7 -7 -7 -7 -6 -5 -6 -6 -6 -6 -5 -5 -6 -6
-6 -7 -7 -6 -6 -6 -6 -5 -4 -3 -3 -2 -1 -1 -1 -1 -2 -2 -2 -2 -2 -2 -3 -3 -4 -3 -5 -4 -6 -7 -6 -6 -7 -7 -7 -6 -5 -5 -5 -6 -6 -6 -6 -5 -6
-7 -7 -7 -7 -7 -7 -7 -6 -4 -4 -3 -3 -2 -1 -1 -1 -1 -2 -2 -2 -2 -2 -3 -3 -3 -4 -5 -6 -6 -7 -7 -6 -6 -7 -7 -6 -6 -6 -5 -5 -6 -7 -6 -6 -5
-7 -8 -8 -8 -8 -8 -8 -6 -5 -4 -3 -4 -3 -2 -1 -1 -1 -2 -2 -2 -2 -3 -3 -2 -3 -6 -5 -7 -7 -6 -7 -6 -6 -7 -6 -7 -7 -6 -6 -6 -6 -6 -7 -6 -6
-8 -8 -8 -8 -8 -9 -8 -7 -8 -6 -4 -5 -4 -3 -2 -2 -1 -2 -3 -2 -2 -2 -3 -3 -4 -5 -5 -7 -7 -6 -6 -6 -6 -6 -6 -7 -7 -6 -7 -7 -7 -6 -7 -7 -6
-8 -9 -9 -9 -9 -9 -8 -9 -8 -6 -6 -6 -5 -5 -5 -3 -2 -2 -3 -3 -3 -2 -3 -3 -4 -5 -6 -7 -7 -7 -7 -6 -6 -7 -7 -7 -7 -7 -7 -7 -7 -8 -7 -7 -6
-8 -9 -10 -9 -10 -9 -10 -10 -8 -7 -8 -8 -7 -5 -5 -4 -4 -3 -3 -3 -3 -3 -3 -4 -5 -5 -5 -7 -7 -7 -7 -7 -6 -6 -7 -6 -7 -7 -7 -7 -7 -7 -6 -7 -7
-9 -9 -10 -10 -10 -10 -10 -10 -9 -7 -8 -9 -9 -7 -7 -6 -5 -4 -4 -4 -3 -3 -3 -4 -4 -5 -7 -8 -7 -7 -7 -7 -7 -7 -6 -6 -7 -7 -7 -7 -8 -7 -7 -6 -7
-9 -10 -10 -11 -11 -10 -10 -10 -9 -7 -9 -9 -10 -9 -8 -7 -6 -6 -5 -4 -4 -4 -3 -3 -4 -4 -7 -7 -7 -7 -7 -7 -7 -7 -7 -7 -7 -7 -7 -7 -7 -7 -8 -8 -8
-9 -10 -11 -11 -11 -11 -11 -10 -8 -9 -9 -9 -9 -9 -9 -9 -7 -7 -6 -5 -5 -4 -4 -4 -4 -6 -7 -7 -7 -7 -7 -7 -7 -7 -7 -6 -6 -6 -7 -7 -7 -7 -8 -8 -8
-10 -10 -11 -11 -11 -11 -11 -10 -9 -9 -9 -9 -9 -10 -10 -9 -9 -9 -8 -6 -6 -6 -5 -5 -7 -6 -7 -7 -7 -7 -7 -7 -7 -7 -7 -6 -6 -6 -7 -7 -7 -8 -7 -8 -8
-10 -11 -11 -11 -12 -11 -10 -10 -10 -10 -9 -10 -9 -10 -10 -9 -8 -9 -8 -8 -7 -6 -6 -6 -7 -7 -7 -7 -7 -7 -7 -7 -7 -7 -7 -7 -7 -7 -7 -8 -8 -8 -7 -8 -8
-11 -12 -11 -12 -12 -11 -10 -10 -11 -10 -10 -11 -10 -10 -10 -9 -8 -9 -8 -9 -8 -7 -7 -6 -7 -7 -7 -7 -7 -7 -6 -7 -8 -7 -7 -7 -7 -8 -7 -7 -7 -7 -8 -7 -8
-12 -13 -12 -12 -12 -11 -11 -11 -11 -11 -11 -11 -11 -10 -10 -9 -9 -9 -8 -8 -8 -8 -6 -7 -7 -7 -7 -7 -7 -7 -7 -7 -7 -7 -7 -7 -7 -7 -7 -7 -8 -8 -8 -9 -9
-13 -13 -13 -12 -12 -13 -12 -11 -11 -11 -11 -11 -10 -12 -11 -10 -9 -9 -8 -8 -8 -8 -7 -7 -7 -7 -7 -7 -8 -7 -7 -7 -7 -7 -7 -7 -8 -7 -7 -8 -8 -8 -9 -9 -8
-14 -14 -13 -12 -12 -12 -12 -12 -11 -11 -11 -11 -11 -11 -11 -10 -9 -9 -8 -8 -8 -8 -8 -7 -8 -8 -7 -7 -7 -7 -8 -8 -8 -8 -8 -8 -8 -8 -8 -8 -8 -8 -9 -8 -8
-15 -14 -14 -14 -14 -14 -13 -12 -12 -11 -11 -11 -13 -11 -11 -11 -11 -9 -8 -8 -8 -8 -8 -8 -8 -8 -8 -7 -8 -9 -8 -8 -9 -8 -8 -7 -7 -7 -7 -8 -9 -8 -8 -8 -8
-15 -15 -14 -15 -15 -14 -15 -13 -14 -13 -12 -12 -12 -13 -12 -12 -11 -10 -9 -9 -8 -8 -8 -8 -8 -8 -8 -8 -7 -8 -8 -8 -8 -7 -8 -8 -8 -8 -8 -8 -8 -7 -7 -8 -8
Height
5896 5897 5898 5900 5901 5904 5905 5907 5907 5907 5908 5909 5909 5909 5908 5908 5908 5907 5908 5909 5911 5913 5914 5915 5918 5922 5926 5923 5922 5923 5926 5920 5920 5918 5923 5924 5925 5924 5923 5922 5921 5921 5920 5920 5921
5892 5893 5895 5896 5897 5899 5902 5904 5905 5906 5906 5907 5908 5909 5909 5908 5908 5908 5908 5908 5911 5912 5915 5916 5919 5922 5922 5922 5920 5921 5929 5924 5926 5922 5926 5930 5927 5922 5925 5926 5924 5921 5921 5922 5921
5887 5888 5889 5891 5893 5895 5897 5900 5903 5904 5905 5905 5906 5908 5908 5908 5909 5909 5908 5909 5911 5912 5916 5916 5919 5919 5919 5921 5926 5930 5925 5930 5933 5928 5926 5929 5930 5925 5924 5927 5927 5924 5923 5924 5924
5882 5882 5884 5885 5887 5889 5892 5895 5898 5901 5903 5904 5905 5906 5907 5908 5909 5908 5908 5908 5911 5912 5917 5918 5922 5920 5920 5927 5935 5933 5938 5933 5928 5927 5930 5932 5929 5927 5927 5928 5929 5926 5924 5925 5925
5878 5877 5877 5879 5880 5883 5885 5889 5893 5897 5899 5901 5903 5904 5906 5907 5908 5907 5907 5909 5911 5912 5916 5917 5921 5920 5923 5930 5938 5937 5935 5936 5930 5925 5930 5932 5930 5931 5930 5930 5930 5927 5926 5926 5927
5874 5873 5873 5872 5874 5876 5879 5882 5886 5891 5894 5897 5900 5902 5904 5906 5906 5907 5907 5908 5911 5911 5914 5917 5920 5919 5921 5929 5936 5932 5936 5934 5930 5932 5934 5934 5933 5933 5933 5931 5930 5928 5927 5928 5929
5868 5868 5868 5868 5868 5869 5871 5874 5878 5884 5888 5892 5895 5899 5901 5903 5904 5905 5906 5906 5908 5912 5914 5916 5918 5919 5919 5928 5934 5934 5934 5932 5932 5931 5932 5933 5933 5933 5933 5933 5930 5928 5928 5929 5930
5864 5862 5863 5863 5862 5862 5864 5867 5870 5875 5880 5885 5889 5894 5896 5900 5901 5903 5905 5905 5906 5909 5913 5914 5917 5917 5916 5923 5931 5932 5933 5933 5932 5931 5928 5932 5935 5933 5932 5931 5930 5929 5930 5930 5931
5859 5857 5856 5857 5857 5857 5857 5859 5862 5866 5871 5877 5883 5888 5891 5895 5898 5899 5902 5904 5904 5907 5909 5911 5913 5915 5915 5918 5925 5928 5929 5930 5931 5932 5932 5931 5933 5934 5932 5932 5933 5933 5932 5931 5932
5853 5852 5851 5850 5850 5851 5851 5851 5853 5857 5861 5868 5875 5882 5886 5887 5891 5895 5898 5900 5902 5903 5906 5908 5910 5912 5913 5915 5920 5925 5928 5928 5930 5933 5932 5931 5934 5935 5933 5933 5934 5935 5933 5932 5933
5847 5846 5845 5844 5843 5844 5845 5845 5845 5850 5856 5861 5865 5870 5878 5881 5887 5891 5893 5895 5897 5899 5902 5906 5906 5909 5913 5917 5919 5925 5927 5930 5926 5930 5932 5931 5929 5932 5931 5932 5932 5933 5935 5933 5932
5840 5840 5839 5838 5837 5837 5837 5837 5835 5839 5847 5850 5856 5860 5868 5874 5878 5884 5887 5891 5893 5896 5898 5900 5903 5908 5911 5912 5919 5923 5928 5929 5931 5927 5930 5930 5927 5929 5929 5933 5931 5931 5933 5935 5934
5832 5832 5832 5831 5831 5831 5829 5828 5832 5831 5834 5843 5850 5854 5860 5866 5872 5877 5882 5886 5889 5891 5894 5897 5904 5905 5906 5909 5916 5920 5928 5929 5929 5927 5928 5927 5925 5928 5929 5927 5928 5929 5928 5930 5933
5823 5824 5823 5823 5825 5823 5820 5826 5824 5822 5825 5841 5844 5849 5850 5857 5863 5869 5876 5882 5884 5888 5890 5894 5899 5900 5901 5905 5915 5918 5923 5928 5928 5920 5919 5922 5924 5923 5924 5923 5924 5924 5924 5925 5928
5813 5815 5815 5817 5814 5815 5817 5819 5818 5820 5825 5831 5834 5839 5845 5853 5859 5863 5868 5874 5880 5884 5884 5891 5891 5894 5897 5903 5911 5915 5918 5921 5925 5924 5924 5921 5920 5919 5918 5920 5917 5917 5919 5922 5925
5803 5804 5807 5809 5805 5811 5811 5811 5812 5815 5822 5822 5827 5833 5838 5842 5847 5852 5860 5865 5873 5876 5879 5884 5888 5890 5895 5900 5904 5910 5912 5915 5919 5920 5919 5920 5918 5915 5915 5920 5920 5917 5914 5917 5920
5793 5794 5798 5799 5797 5803 5803 5803 5805 5808 5819 5820 5822 5826 5831 5837 5842 5844 5849 5854 5860 5865 5871 5878 5881 5885 5890 5895 5900 5903 5906 5909 5912 5912 5910 5915 5913 5912 5914 5916 5914 5914 5913 5914 5915
5784 5785 5788 5790 5789 5795 5795 5796 5796 5810 5814 5815 5816 5828 5828 5832 5836 5838 5842 5848 5854 5861 5867 5871 5875 5880 5886 5889 5894 5896 5901 5903 5904 5908 5909 5909 5909 5908 5910 5911 5909 5911 5911 5910 5909
5774 5775 5780 5780 5781 5785 5787 5787 5792 5803 5811 5813 5818 5824 5828 5829 5830 5833 5835 5843 5851 5856 5861 5866 5872 5877 5880 5886 5890 5894 5895 5901 5903 5905 5906 5907 5905 5906 5906 5907 5906 5906 5905 5907 5906
5763 5766 5769 5770 5773 5775 5778 5783 5787 5796 5801 5799 5803 5811 5817 5827 5827 5828 5830 5837 5845 5850 5858 5860 5868 5873 5879 5882 5886 5890 5894 5896 5896 5898 5901 5904 5902 5899 5898 5898 5900 5901 5902 5900 5900
5753 5756 5757 5762 5763 5766 5772 5778 5782 5787 5791 5792 5793 5800 5808 5821 5825 5825 5828 5833 5839 5845 5852 5856 5861 5871 5875 5875 5880 5884 5885 5889 5894 5895 5898 5900 5898 5899 5897 5897 5897 5898 5901 5898 5897
5743 5745 5746 5751 5756 5758 5764 5769 5776 5778 5780 5782 5790 5795 5803 5809 5814 5824 5825 5828 5834 5840 5844 5850 5855 5862 5870 5872 5877 5881 5881 5884 5886 5890 5893 5894 5892 5888 5893 5894 5893 5892 5891 5895 5897
5732 5735 5736 5743 5748 5751 5755 5760 5767 5771 5773 5778 5779 5788 5794 5800 5805 5810 5814 5827 5831 5833 5838 5844 5848 5854 5863 5869 5869 5871 5875 5879 5881 5885 5886 5889 5889 5887 5887 5889 5886 5886 5887 5889 5891
5722 5726 5726 5728 5736 5741 5746 5751 5755 5764 5769 5772 5774 5779 5782 5791 5798 5803 5809 5816 5826 5828 5834 5839 5842 5847 5853 5860 5864 5867 5871 5874 5876 5877 5882 5884 5886 5884 5882 5882 5880 5881 5881 5883 5884
5709 5712 5715 5718 5725 5727 5734 5741 5747 5753 5758 5767 5768 5769 5774 5782 5789 5795 5803 5808 5814 5821 5827 5833 5834 5842 5848 5854 5858 5862 5865 5868 5869 5872 5873 5879 5879 5876 5877 5878 5875 5875 5880 5878 5881
5698 5703 5706 5710 5717 5721 5727 5732 5736 5746 5750 5757 5756 5765 5770 5775 5778 5784 5789 5797 5807 5816 5819 5825 5828 5834 5839 5846 5851 5852 5856 5859 5862 5865 5868 5871 5873 5870 5873 5871 5866 5866 5874 5873 5872
5684 5688 5694 5701 5704 5709 5716 5720 5727 5737 5738 5741 5750 5754 5762 5764 5769 5777 5783 5791 5800 5803 5810 5818 5820 5825 5830 5837 5841 5844 5850 5855 5860 5859 5859 5859 5861 5863 5863 5860 5858 5859 5864 5864 5865
Wind_Speed
25 27 28 28 26 22 18 16 14 11 8 6 3 3 5 3 1 6 10 7 10 16 30 32 23 19 14 21 21 24 17 11 17 15 11 9 6 9 10 11 12 10 11 12 14
26 27 30 32 31 29 24 20 18 15 11 8 7 3 3 5 2 4 9 12 13 16 29 33 33 28 22 24 24 26 17 14 14 5 10 4 3 10 9 6 9 9 8 10 10
24 28 29 32 34 34 30 26 21 19 15 12 11 7 2 3 3 3 7 11 14 14 25 38 40 28 26 27 18 15 13 17 4 2 7 2 5 7 5 3 6 6 7 8 9
16 23 30 31 32 34 35 31 26 22 20 16 13 11 7 1 2 5 5 13 15 12 18 37 30 29 30 23 4 5 14 13 16 17 15 10 6 6 3 1 4 5 7 5 6
20 18 21 31 32 33 35 35 32 27 25 20 17 14 11 7 1 3 7 8 16 15 18 38 25 22 28 17 5 11 11 12 20 20 8 9 3 2 1 2 4 5 5 4 3
24 21 20 21 33 34 34 35 35 33 30 26 21 18 16 12 8 3 7 8 16 17 19 26 28 21 25 16 11 4 11 13 14 14 13 6 2 1 1 4 6 7 5 3 3
25 24 23 21 22 35 35 35 34 36 34 31 26 21 20 15 12 7 10 12 16 19 20 24 26 21 29 17 20 9 11 15 9 5 1 6 4 2 3 2 6 9 8 5 5
26 27 25 24 23 24 37 36 34 34 38 36 32 26 24 19 18 13 8 11 12 17 24 25 21 18 29 24 15 16 16 12 5 13 18 10 10 4 4 6 5 7 9 9 7
25 26 28 26 25 24 26 39 37 34 37 40 36 32 27 25 23 19 13 17 17 18 20 21 21 18 25 26 21 19 10 10 8 7 11 16 11 5 6 7 7 2 6 8 9
28 28 28 28 27 27 26 29 41 39 37 42 40 37 33 34 30 23 20 16 19 20 20 20 20 19 20 25 15 22 20 19 17 10 11 14 10 9 4 11 12 5 3 6 6
30 31 30 30 28 28 28 26 35 43 37 38 45 42 38 36 33 29 25 21 22 23 20 21 24 19 15 16 17 8 7 8 14 17 14 19 19 14 9 11 13 9 9 1 3
32 34 34 33 30 28 29 29 30 40 41 38 43 45 43 39 37 35 31 26 23 21 24 25 24 20 22 23 20 15 18 16 12 17 21 15 17 22 27 13 2 7 10 11 4
35 35 36 36 32 30 31 31 29 31 44 37 39 45 44 42 40 38 35 29 25 25 28 22 20 25 25 30 24 22 20 15 19 17 24 13 20 24 13 20 13 12 16 16 12
37 37 36 36 34 32 34 27 27 29 34 29 32 38 47 46 44 42 38 33 31 27 28 26 25 29 25 22 22 27 19 25 13 29 22 22 24 22 16 22 15 18 7 9 9
38 37 38 35 36 33 33 25 31 30 23 24 29 32 38 41 41 43 41 38 33 30 33 27 30 31 28 28 24 26 28 29 27 18 22 22 24 29 27 29 26 11 12 16 13
39 36 37 36 35 33 29 26 28 28 12 12 22 26 37 42 42 43 42 43 38 37 34 32 30 32 25 26 29 23 29 27 33 29 30 35 30 29 31 21 21 25 19 17 11
36 36 34 37 36 31 31 30 29 28 21 17 11 14 24 32 38 43 47 48 47 44 39 34 33 28 26 26 29 29 26 24 25 28 31 15 27 28 31 27 24 20 20 17 16
34 34 33 35 35 31 31 33 33 15 29 26 18 9 14 19 30 35 43 47 47 45 39 37 36 30 19 23 23 25 28 28 31 25 6 9 17 23 26 26 29 27 23 25 32
35 34 31 37 36 33 32 36 29 12 35 31 23 11 26 22 24 29 39 42 42 44 43 36 32 25 23 29 29 18 27 28 19 10 16 18 20 16 23 21 20 20 18 20 22
33 33 34 38 38 36 35 32 25 16 42 33 32 22 17 28 25 24 30 38 38 42 40 32 16 25 20 22 24 23 28 28 30 28 24 16 18 23 21 20 22 22 23 23 23
33 31 37 36 38 38 34 29 22 23 46 35 37 27 25 23 25 27 26 28 32 37 38 32 27 25 27 36 32 29 34 25 26 31 20 16 24 23 24 25 23 27 25 20 21
32 30 37 35 38 40 32 27 24 31 47 41 31 28 30 25 34 29 28 25 25 29 40 36 30 27 30 25 22 24 37 25 23 25 23 23 24 24 22 19 26 30 29 25 20
33 31 34 33 35 39 34 29 29 33 44 34 28 36 34 33 33 33 38 29 26 22 35 39 37 33 33 31 30 28 24 22 28 26 30 29 27 25 25 27 26 23 30 26 28
34 32 35 37 36 40 37 32 33 33 45 41 22 22 42 37 33 33 33 34 32 28 20 45 40 36 36 25 38 29 24 28 35 32 27 25 24 28 32 32 37 39 26 29 31
35 35 39 40 39 46 42 34 34 36 39 44 28 37 37 38 36 38 31 35 33 32 29 45 38 38 36 38 32 31 33 33 35 33 28 25 25 37 38 38 44 30 33 32 28
37 33 40 39 36 40 46 39 36 36 41 48 35 31 37 44 27 33 40 36 40 33 35 28 38 35 40 39 39 30 19 23 24 25 31 25 40 42 40 33 38 39 32 30 25
40 37 39 38 37 33 42 44 36 34 41 45 45 31 32 32 37 43 41 36 38 46 39 42 41 46 45 46 46 39 36 27 24 27 31 32 23 34 41 43 49 46 40 37 37
Wind_Direction
253 251 244 240 236 237 243 247 251 241 236 235 168 98 45 48 172 176 182 165 150 153 150 148 143 132 130 63 58 40 46 8 5 98 12 357 90 79 78 81 82 82 88 95 99
256 252 248 247 248 245 244 240 244 245 234 231 224 169 69 65 139 186 180 170 150 154 146 145 147 134 90 63 31 19 33 8 339 59 350 332 36 69 25 51 64 73 73 86 85
269 255 251 247 246 251 248 244 233 242 239 232 220 211 202 60 105 143 174 175 159 161 150 146 143 131 91 83 73 10 39 266 264 306 288 346 44 44 349 35 45 68 82 82 88
312 272 254 250 247 245 246 243 236 230 236 233 224 215 215 223 186 173 186 175 170 161 148 152 149 113 92 90 101 188 185 238 266 275 282 5 360 20 274 16 347 82 98 93 84
300 304 275 254 249 247 243 241 237 229 230 231 229 220 216 207 196 176 175 183 169 166 148 161 155 139 94 81 175 210 235 234 243 264 287 269 34 84 268 27 43 68 86 98 84
295 295 297 283 253 247 246 243 236 231 229 229 229 226 215 211 215 180 177 175 177 174 166 170 173 166 117 119 195 214 242 231 230 220 219 256 132 147 16 68 84 80 73 64 67
288 289 290 292 286 253 245 244 243 232 229 228 228 225 221 207 217 210 182 188 189 179 171 181 191 193 133 143 224 177 224 202 237 360 247 180 170 91 38 38 61 75 66 60 55
289 287 286 287 288 282 251 245 241 241 228 227 224 222 223 208 219 207 197 194 200 189 178 189 187 214 154 154 229 206 222 228 83 11 344 7 327 302 10 347 29 79 79 77 75
285 285 285 284 284 286 276 248 244 236 234 225 223 219 218 213 212 219 201 189 203 203 202 192 184 207 171 169 199 221 156 217 259 328 339 330 328 301 327 310 332 81 109 99 88
290 284 281 280 280 283 284 266 245 240 231 226 222 218 214 211 211 210 210 206 203 206 208 196 198 196 207 181 179 174 177 241 253 280 314 295 319 256 286 282 280 316 127 111 92
289 288 281 277 276 278 283 282 256 242 239 230 221 220 217 213 209 210 209 208 208 208 201 192 210 209 203 170 137 159 286 245 248 247 279 291 315 286 280 271 255 306 317 19 128
285 284 283 277 275 275 276 278 273 247 235 231 222 219 216 214 210 206 212 209 214 214 200 203 204 202 207 159 160 167 232 287 298 296 285 294 294 304 311 248 221 360 4 309 272
285 280 279 276 273 275 272 270 281 269 239 236 228 221 215 213 214 206 211 210 210 212 209 212 196 201 194 160 176 172 195 269 266 258 264 242 289 305 311 275 296 329 329 314 264
283 278 273 273 270 272 270 276 278 268 250 230 235 223 220 213 210 208 205 210 211 211 211 209 199 205 190 173 188 185 196 198 235 266 274 298 293 287 290 292 288 295 339 343 280
280 274 268 267 268 264 267 273 274 275 258 229 233 219 223 220 220 207 205 208 210 211 213 207 207 204 190 180 193 220 204 205 199 230 268 263 268 289 287 292 285 288 285 292 284
279 273 265 263 264 262 271 262 262 263 229 223 230 226 223 217 213 208 206 207 207 208 212 210 207 210 204 198 189 208 222 224 206 205 231 248 261 269 273 293 287 298 289 304 273
277 274 260 261 258 261 261 255 250 253 189 172 235 242 221 218 219 215 206 206 208 207 209 208 213 209 207 216 212 214 220 207 223 226 236 257 240 249 268 278 283 280 297 301 284
273 271 258 251 256 254 255 253 248 245 185 158 171 286 306 238 219 219 219 209 208 210 211 207 211 210 191 213 222 228 194 209 212 229 266 307 241 259 264 273 274 292 298 291 293
270 266 251 246 251 252 251 250 248 228 173 165 173 159 257 286 233 220 224 217 214 212 212 207 209 197 192 229 211 202 202 228 205 235 267 282 269 263 259 279 285 288 304 304 301
265 258 247 242 247 248 249 250 247 203 174 177 180 186 186 250 263 232 228 221 213 215 218 202 214 199 207 248 188 213 230 232 205 228 232 244 281 269 279 277 275 275 297 313 324
262 253 244 242 243 246 248 253 241 193 187 193 185 183 184 204 253 240 231 231 224 216 211 192 192 187 205 231 201 204 225 224 217 222 226 243 244 249 265 265 260 281 299 306 310
257 251 243 237 237 243 240 241 224 197 192 197 192 190 180 197 200 227 224 233 246 227 208 200 182 174 217 246 250 234 232 218 228 207 219 230 250 265 257 268 276 284 295 297 306
253 250 247 236 237 242 239 231 221 203 201 189 183 188 194 195 195 198 207 222 244 245 215 187 180 194 210 236 244 239 221 224 242 227 215 226 247 274 276 278 274 276 283 294 293
249 242 244 235 223 227 236 231 218 208 207 202 193 194 205 205 201 196 204 200 229 243 224 189 189 204 213 221 229 222 218 222 237 254 236 227 235 254 272 267 264 274 276 284 291
243 241 238 240 227 228 224 223 224 209 204 210 215 199 209 200 200 200 200 204 200 230 239 198 203 207 209 202 192 227 227 231 234 239 235 242 243 254 261 259 272 264 281 272 276
242 239 237 236 238 237 224 219 215 219 205 204 207 216 202 208 206 199 197 198 199 205 222 217 210 212 215 201 207 212 236 236 240 239 233 245 239 260 264 276 267 274 277 288 299
238 236 232 232 232 231 227 216 208 218 214 208 207 229 192 210 209 199 199 202 198 206 210 217 220 218 218 215 216 219 214 225 240 271 274 264 253 242 249 257 265 273 279 282 281